Regional Weather Roundup
Issued by NWS Jackson, KY

Home | Current Version | Previous Version | Text Only | Print | Product List | Glossary Off
Versions: 1 2 3 4 5 6 7 8 9 10 11 12 13 14 15 16 17 18 19 20 21 22 23 24 25 26 27 28 29 30 31 32 33 34 35 36 37 38 39 40 41 42 43 44 45 46 47 48 49 50

000
ASUS43 KJKL 271110
RWRJKL

EAST KENTUCKY HOURLY WEATHER ROUNDUP
NATIONAL WEATHER SERVICE JACKSON KY
700 AM EDT MON JUL 27 2015

NOTE: "FAIR" INDICATES FEW OR NO CLOUDS BELOW 12,000 FEET WITH
NO SIGNIFICANT WEATHER AND/OR OBSTRUCTIONS TO VISIBILITY.

* THESE REPORTS ARE NOT UNDER NWS QUALITY CONTROL AND MAY NOT
  REPORT WEATHER SUCH AS PRECIPITATION AND FOG.

KYZ079-080-083-085-087-088-110-112-115-119-120-271200
...EASTERN KENTUCKY...

CITY           SKY/WX    TMP DP  RH WIND       PRES   REMARKS
JACKSON        PTCLDY    73  71  93 CALM      30.02R FOG
LONDON         MOCLDY    72  67  84 CALM      30.02R HAZE
SOMERSET*      MOCLDY    68  68 100 CALM      30.03R
MONTICELLO*    PTCLDY    72  72 100 CALM      30.04R FOG
WILLIAMSBURG*  CLOUDY    68  68 100 CALM      30.03R
MIDDLESBORO*   CLOUDY    71  71  98 CALM      30.04R
HAZARD APT*    SUNNY     72  72 100 CALM      30.02R FOG
BLACK MTN*       N/A     68  66  94 SW3         N/A
PIKEVILLE APT* DRIZZLE   70  68  94 S3        30.02R
BIG SANDY*     CLOUDY    73  72  95 CALM      30.00R
MOREHEAD APT*  CLOUDY    73  72  94 CALM      30.01R FOG
$$

KYZ035-036-041-042-044-050-067-078-099-271200
...CENTRAL KENTUCKY...

CITY           SKY/WX    TMP DP  RH WIND       PRES   REMARKS
MT STERLING*   PTCLDY    72  72 100 SW3       30.01R
FLEMING/MASON* CLEAR     72  72 100 CALM      29.99R FOG
RICHMOND*      MOCLDY    72  70  94 CALM      29.99R
LEXINGTON      CLOUDY    74  71  91 S5        30.00R
FRANKFORT      PTCLDY    74  71  91 CALM      29.98R FOG
$$

KYZ091>093-OHZ055-061-077-WVZ005-015-034-035-042-271200
...SOUTHERN OHIO/WEST VIRGINIA...

CITY           SKY/WX    TMP DP  RH WIND       PRES   REMARKS
COVINGTON      CLOUDY    73  71  93 W3        29.98R FOG
COLUMBUS       CLOUDY    72  67  84 NE3       29.99R
DAYTON         RAIN      70  70 100 NW5       30.01R FOG
WILMINGTON     LGT RAIN  71  70  96 CALM      29.99R FOG
HUNTINGTON     CLOUDY    72  71  97 CALM      29.97R
CHARLESTON     CLOUDY    72  70  93 CALM      29.99R FOG
PINEVILLE*     CLOUDY    69  69 100 MISG      30.09R
BECKLEY        CLOUDY    69  64  84 N3        30.07R
BLUEFIELD      CLOUDY    71  65  81 CALM      30.10S
$$

VAZ002-007-008-TNZ017-027-036-066-071-271200
...SOUTHWEST VIRGINIA/EAST TENNESSEE...

CITY           SKY/WX    TMP DP  RH WIND       PRES   REMARKS
WISE*          MOCLDY    72  70  94 W3        30.11R
ABINGDON*      MOCLDY    70  68  92 CALM      30.07R
BRISTOL        MOCLDY    69  68  96 NW3       30.04R
KNOXVILLE      PTCLDY    73  68  84 CALM      30.01R
OAK RIDGE      CLEAR     72  69  90 CALM      30.03R
CROSSVILLE     MOCLDY    71  68  90 CALM      30.07R
NASHVILLE      PTCLDY    75  74  96 CALM      30.00R FOG
$$

...KEY TO REMARKS...
VSB - VISIBILITY IN MILES
WCI - WIND CHILL INDEX
HX  - HEAT INDEX

$$


USA.gov is the U.S. government's official web portal to all federal, state and local government web resources and services.